Flag for Finland Weather past 2 weeks in Rovaniemi, Finland

Now
45 °F

Overcast.


Feels Like: 39 °F
Forecast: 42 / 59 °F
Wind: 10 mph from South

Location: Rovaniemi Airport

Current Time: May 28, 2015 at 8:22:01 AM

Latest Report: May 28, 2015 at 7:50 AM


Visibility: N/A

Pressure: 29.53 "Hg

Humidity: 81%

Dew point: 39 °F

Location of RovaniemiLocation

Historic Weather in Rovaniemi — Graph

°F

Rovaniemi temperature yesterday

Maximum temperature yesterday: 54 °F (at 9:50 AM)
Minimum temperature yesterday: 45 °F (at 10:50 PM)
Average temperature yesterday: 49 °F

Past Weeks' High & Low Weather Summary

 TemperatureHumidityPressure
High57 °F (May 22, 3:20 PM)100% (May 13, 7:20 AM)29.92 "Hg (May 13, 7:20 AM)
Low30 °F (May 16, 3:20 AM)35% (May 25, 2:50 PM)29.21 "Hg (May 23, 4:50 PM)
Average43 °F80%29.68 "Hg
* Reported May 13 7:20 AM — May 28 7:20 AM, Rovaniemi, Weather by CustomWeather, © 2015

Note: Actual official high and low records may vary slightly from our data, if they occured in-between our weather recording intervals... More about our weather records

Advertising

Rovaniemi weather history for previous 24 hours

 ConditionsComfort  
Time TempWeatherWind HumidityBarometerVisibility
7:20 AM
Thu, May 28
45 °FOvercast.12 mph81%29.53 "HgN/A
6:20 AM45 °FPartly sunny.9 mph81%29.53 "HgN/A
5:50 AM45 °FOvercast.10 mph81%29.56 "HgN/A
5:20 AM45 °FBroken clouds.12 mph81%29.56 "HgN/A
4:50 AM45 °FCloudy.6 mph93%29.56 "HgN/A
4:20 AM45 °FPartly sunny.6 mph93%29.56 "HgN/A
3:50 AM45 °FPartly sunny.7 mph93%29.56 "HgN/A
3:20 AM45 °FLight rain. Partly cloudy.6 mph93%29.56 "HgN/A
2:50 AM45 °FMostly cloudy.7 mph93%29.56 "HgN/A
2:20 AM45 °FPassing clouds.8 mph87%29.56 "HgN/A
1:50 AM45 °FPartly cloudy.8 mph87%29.56 "HgN/A
1:20 AM45 °FPassing clouds.7 mph87%29.56 "HgN/A
12:50 AM45 °FPassing clouds.8 mph87%29.59 "HgN/A
12:20 AM45 °FPassing clouds.7 mph93%29.59 "HgN/A
11:50 PM
Wed, May 27
45 °FPartly sunny.6 mph93%29.59 "HgN/A
11:20 PM45 °FScattered clouds.6 mph93%29.59 "HgN/A
10:50 PM45 °FScattered clouds.6 mph93%29.59 "HgN/A
10:20 PM46 °FPassing clouds.7 mph82%29.59 "HgN/A
9:50 PM46 °FPassing clouds.9 mph82%29.59 "HgN/A
9:20 PM46 °FBroken clouds.12 mph82%29.59 "HgN/A
8:50 PM48 °FBroken clouds.6 mph87%29.59 "HgN/A
8:20 PM46 °FBroken clouds.8 mph87%29.59 "HgN/A
7:50 PM46 °FPassing clouds.14 mph87%29.62 "HgN/A
7:20 PM50 °FScattered clouds.10 mph82%29.59 "HgN/A
6:50 PM48 °FBroken clouds.12 mph87%29.59 "HgN/A
6:20 PM48 °FScattered showers. Broken clouds.10 mph94%29.59 "HgN/A
5:50 PM48 °FSprinkles. Partly sunny.6 mph94%29.59 "HgN/A
5:20 PM48 °FRain showers. Broken clouds.9 mph100%29.59 "Hg4 mi
4:50 PM48 °FLight rain. Cloudy.12 mph100%29.59 "HgN/A
4:20 PM48 °FLight rain. Broken clouds.13 mph100%29.59 "Hg5 mi
3:50 PM48 °FLight rain. Mostly cloudy.13 mph100%29.59 "Hg6 mi
3:20 PM48 °FRain. Partly sunny.12 mph100%29.62 "HgN/A
2:50 PM50 °FLight rain. Mostly cloudy.12 mph94%29.62 "HgN/A
2:20 PM52 °FSprinkles. Partly sunny.6 mph88%29.62 "HgN/A
1:50 PM54 °FLight rain. Cloudy.10 mph77%29.62 "HgN/A
1:20 PM54 °FMostly cloudy.14 mph72%29.62 "HgN/A
12:50 PM54 °FSunny.12 mph77%29.65 "Hg10 mi
12:20 PM52 °FScattered showers. Mostly cloudy.12 mph77%29.65 "HgN/A
11:50 AM52 °FLight rain. Mostly cloudy.13 mph82%29.68 "HgN/A
11:20 AM52 °FLight rain. Partly sunny.12 mph77%29.68 "HgN/A
10:50 AM52 °FLight rain. Mostly cloudy.9 mph77%29.68 "HgN/A
10:20 AM52 °FLight rain. Partly sunny.13 mph77%29.68 "HgN/A
9:50 AM54 °FLight rain. Partly sunny.9 mph67%29.71 "HgN/A
9:20 AM52 °FSunny.9 mph72%29.71 "Hg10 mi
8:50 AM52 °FSunny.12 mph72%29.68 "Hg10 mi
8:20 AM52 °FSunny.12 mph72%29.71 "Hg10 mi
Weather by CustomWeather, © 2015

See weather overviewHow to use our weather pages